GFSFLT1_sfc_thetae_090.txt.gz
Theta_e
304 306 307 307 308 319 336 337 337 335 334 332 330 330 329 332 329 331 330 331 329 329 328 327 330 329 327 326 325 323 323 324
301 305 305 307 307 325 334 335 334 333 331 328 327 327 328 326 328 327 329 330 329 328 325 327 330 327 325 324 323 322 323 325
303 302 304 304 305 323 333 333 332 333 331 330 327 326 326 329 324 324 326 325 326 326 326 326 327 325 324 324 323 322 321 325
303 304 302 304 306 327 332 332 331 332 330 325 323 321 321 323 325 321 323 325 325 326 327 327 326 325 323 324 323 322 320 321
304 305 307 305 308 327 332 333 331 329 327 325 323 322 320 322 325 320 321 324 324 325 327 326 326 326 324 323 324 323 323 318
304 305 307 309 320 329 332 332 329 328 328 325 323 320 318 321 320 319 319 320 323 325 326 326 325 325 325 324 324 322 323 320
302 305 306 305 310 328 331 330 328 327 326 324 322 320 318 319 319 319 321 322 323 324 326 326 325 325 324 324 324 323 322 321
300 301 303 304 308 312 329 328 325 326 324 323 322 321 320 319 319 319 321 321 322 323 324 324 324 325 324 325 324 323 322 320
298 300 300 303 307 315 328 327 323 323 323 322 322 321 320 320 320 321 320 320 321 321 322 323 323 324 324 324 324 323 322 321
296 297 297 300 303 310 321 326 325 323 323 322 321 321 319 319 320 321 319 321 319 318 319 320 321 322 322 322 323 321 322 321
293 294 295 298 301 305 314 321 324 323 323 323 322 321 321 322 320 319 320 320 320 319 319 319 320 320 320 320 321 321 320 320
291 292 294 296 299 301 305 310 322 322 322 322 320 321 322 323 321 320 320 320 320 319 319 319 318 319 319 319 318 319 319 319
290 290 291 293 293 297 299 302 307 320 321 321 321 322 323 322 322 322 321 320 320 319 319 318 318 318 318 318 318 318 318 317
288 288 289 290 291 292 295 299 301 313 320 320 320 320 321 321 321 322 322 321 320 320 319 318 317 317 317 317 318 318 317 318
287 287 287 288 290 290 292 296 300 303 312 315 313 312 312 312 313 312 313 311 309 307 306 305 306 307 311 316 317 317 317 317
286 285 286 287 288 289 290 292 295 300 303 304 305 304 304 304 303 301 300 299 299 299 298 297 297 297 296 304 313 315 313 303
285 285 285 285 286 287 289 290 291 296 296 297 299 300 298 296 296 295 294 293 293 293 292 293 293 293 292 293 300 300 300 297
284 284 284 285 285 287 287 289 291 291 294 295 294 294 293 293 292 291 290 289 289 289 290 290 289 289 289 290 290 291 290 290
284 284 284 285 286 286 288 289 289 289 289 291 292 291 290 290 289 288 287 287 287 287 288 289 288 287 287 287 287 287 286 285

GFSFLT1_sfc_thetae_093.txt.gz
Theta_e
300 301 301 302 303 304 326 336 337 337 334 332 331 330 330 332 332 332 332 332 330 329 328 326 327 326 327 327 325 326 323 324
306 302 302 303 301 302 319 333 335 335 332 331 330 329 329 330 330 331 330 331 330 329 328 326 326 326 325 326 326 323 321 324
306 307 308 301 303 305 317 331 334 334 333 332 330 332 330 330 330 330 331 328 328 328 327 326 327 327 326 324 324 321 322 324
303 305 306 307 305 306 323 329 333 334 333 327 323 324 325 325 326 328 327 326 326 327 325 328 327 326 324 324 323 322 320 323
302 303 304 305 306 309 323 330 332 333 331 327 324 325 324 326 328 328 324 324 324 325 324 326 327 326 323 323 324 323 321 319
299 303 303 304 306 308 322 330 331 332 329 328 325 323 323 321 322 324 321 322 324 326 327 326 325 325 324 324 324 323 322 320
300 301 302 302 305 309 322 328 329 330 328 326 325 321 319 320 320 321 319 321 323 325 325 325 326 324 324 323 323 323 323 322
297 297 297 299 301 305 317 329 328 327 327 324 323 320 320 319 320 319 319 320 321 322 325 325 324 325 324 324 323 323 323 321
295 295 296 297 300 303 310 329 326 326 325 323 322 321 320 320 320 319 320 321 322 322 322 324 325 324 324 324 324 323 323 322
293 293 294 296 297 300 304 323 324 325 324 322 321 321 320 319 319 321 321 321 321 321 323 323 322 323 323 323 323 322 322 322
291 291 292 295 296 299 302 310 323 323 323 322 321 320 320 319 319 318 318 317 318 319 318 319 319 320 320 321 321 322 322 322
289 290 291 293 296 296 299 304 319 322 322 321 320 319 319 319 318 317 317 317 318 318 318 317 317 318 319 319 319 320 320 320
288 289 289 291 292 295 296 298 305 314 322 320 319 320 320 319 318 317 318 317 316 316 318 318 318 318 318 318 317 318 318 318
287 287 287 288 290 292 294 295 299 304 317 320 319 320 320 321 321 320 320 318 318 319 318 317 318 318 317 317 318 317 318 318
286 285 286 287 288 289 291 292 296 300 303 311 315 318 318 317 316 316 315 313 310 308 307 306 307 309 313 316 317 317 317 318
285 284 284 285 286 287 289 291 293 297 298 298 299 305 308 306 304 303 302 301 300 300 299 298 297 297 297 300 314 315 308 304
284 284 284 285 285 286 288 289 291 294 293 293 294 295 296 295 295 295 294 294 294 294 293 292 291 292 290 293 302 302 300 298
283 284 284 285 285 286 286 288 290 290 291 290 290 290 290 290 290 290 290 290 291 290 289 289 288 288 289 290 291 292 292 292
283 283 284 284 285 285 286 286 287 287 287 288 289 288 286 287 287 286 287 287 287 288 287 287 286 287 287 288 288 288 287 287

GFSFLT1_sfc_thetae_096.txt.gz
Theta_e
306 307 308 309 305 299 304 323 334 336 337 335 334 333 333 334 332 332 331 330 327 327 327 326 328 327 327 327 325 325 325 325
305 306 307 307 307 303 300 312 331 335 336 332 331 330 331 333 333 332 332 331 330 329 328 325 326 326 326 326 325 324 322 325
304 304 305 306 305 306 306 305 326 334 335 334 331 332 332 333 332 332 332 331 330 330 328 326 325 325 325 325 325 323 323 325
301 302 303 304 303 304 307 308 320 332 334 334 325 328 326 325 328 328 330 331 329 329 328 326 326 326 324 325 325 323 321 323
299 300 301 302 303 304 306 310 314 331 334 332 329 328 325 327 327 328 328 329 328 329 327 326 325 327 326 325 325 324 322 319
296 298 299 301 302 302 306 309 316 330 333 331 327 327 327 326 327 320 325 326 327 327 326 325 326 326 325 324 324 323 323 321
297 298 298 298 300 301 303 308 320 330 332 330 326 326 320 324 325 324 325 325 325 326 327 326 325 325 324 324 324 323 322 322
294 294 294 295 297 299 301 305 314 329 329 328 326 324 321 323 324 324 323 323 323 324 324 323 323 324 324 324 323 323 323 322
292 293 293 293 295 297 299 302 307 327 327 327 326 320 320 320 321 322 323 323 323 324 323 323 323 322 324 324 323 322 322 322
291 292 292 292 294 296 298 300 305 324 325 324 322 320 319 319 320 321 322 323 321 321 322 322 324 324 323 323 323 322 322 322
289 290 290 291 293 295 297 299 304 323 323 323 322 321 320 320 320 319 320 321 321 320 320 321 322 323 323 323 322 323 322 322
287 288 289 290 292 293 294 298 302 309 321 322 320 319 319 319 319 319 319 318 319 319 319 320 319 319 319 319 320 320 320 321
287 287 288 288 289 291 292 295 299 303 309 319 319 318 319 318 318 318 316 316 316 317 318 317 317 317 318 317 317 318 318 318
286 286 286 287 288 289 290 293 296 300 304 314 319 319 319 318 318 317 316 316 314 315 315 317 317 318 317 317 317 317 317 318
285 285 285 286 287 287 289 290 293 295 297 299 302 303 318 320 319 319 318 318 315 311 309 307 307 307 310 314 317 317 317 317
284 284 284 285 285 286 287 289 290 293 292 292 293 295 296 302 309 305 303 302 302 302 300 298 298 297 295 297 308 315 312 305
283 284 284 284 285 285 286 287 288 290 291 290 291 291 291 291 294 295 295 295 294 294 292 291 291 291 290 292 302 303 300 298
282 283 283 284 284 285 285 285 287 287 287 289 290 289 288 287 287 290 290 290 290 289 288 288 287 288 289 290 291 292 292 292
283 283 283 283 284 284 285 285 285 285 285 285 287 288 287 287 285 285 286 287 287 287 286 287 286 287 288 288 288 288 288 288

GFSFLT1_sfc_thetae_099.txt.gz
Theta_e
310 311 311 313 314 314 315 314 313 329 339 340 339 338 339 339 336 335 336 336 333 332 332 332 333 332 329 329 326 328 329 328
309 310 310 311 312 312 313 313 316 316 336 335 332 330 333 335 336 335 335 334 332 330 330 330 331 330 329 328 327 326 326 328
307 307 308 308 308 310 310 312 314 314 327 335 335 332 333 336 336 334 335 333 331 329 329 329 329 328 328 328 326 324 325 327
304 304 305 306 306 307 307 309 311 314 318 334 335 334 334 331 333 332 333 334 331 330 331 330 328 329 327 327 327 324 322 325
303 302 302 303 304 304 304 306 310 314 319 329 331 327 325 331 333 332 332 330 329 328 330 331 329 328 327 329 328 326 325 321
300 300 300 301 300 300 302 304 306 312 319 326 333 329 332 335 334 330 330 332 329 323 322 328 328 328 329 330 326 326 325 324
298 299 298 297 298 298 299 301 303 308 320 327 332 330 331 331 330 329 331 329 324 324 326 328 329 328 329 330 328 326 325 325
295 295 294 294 295 296 298 299 301 306 311 330 331 330 331 331 330 329 328 326 323 324 328 327 327 329 329 331 326 327 325 324
293 293 293 292 293 294 295 298 299 304 308 330 330 328 328 331 332 328 328 327 327 328 328 329 328 329 326 327 326 326 326 324
292 292 292 291 292 293 294 296 298 303 309 329 329 325 324 325 331 331 330 328 327 326 327 326 325 324 325 327 324 325 325 324
291 291 291 291 292 292 293 295 298 302 308 326 324 324 325 324 325 324 325 325 323 325 325 324 323 324 327 326 324 324 324 324
290 290 290 290 290 291 292 293 296 301 303 320 323 323 321 321 322 324 324 322 322 322 322 323 324 324 325 323 323 323 322 322
289 289 289 288 288 289 289 292 293 298 300 308 320 321 322 322 321 322 323 320 320 321 322 322 321 322 321 321 320 321 321 320
289 288 287 287 287 287 288 290 291 295 297 298 301 302 317 321 321 320 320 319 319 320 320 320 319 319 318 318 319 321 320 320
287 286 286 286 286 287 287 288 289 291 294 294 294 296 298 305 320 321 320 320 320 320 318 316 314 312 314 318 318 319 318 320
285 284 285 285 285 285 286 287 287 289 290 291 292 293 293 293 299 299 316 311 308 306 303 300 299 299 297 301 310 317 318 310
284 284 284 284 284 284 285 285 286 288 287 288 291 291 291 289 290 292 294 297 296 295 293 293 293 293 290 293 303 306 302 299
283 283 283 283 283 284 284 284 285 285 286 286 287 289 289 290 288 288 287 288 290 289 289 289 288 290 290 291 292 295 293 293
283 283 283 283 284 283 284 284 284 283 283 284 285 286 287 288 287 286 285 285 286 286 287 288 288 288 288 289 289 290 288 288

GFSFLT1_sfc_thetae_102.txt.gz
Theta_e
314 315 317 318 318 320 321 322 324 326 324 328 337 338 343 344 342 341 342 343 341 341 340 338 338 335 337 335 333 332 331 331
314 315 316 317 318 317 317 319 321 322 322 319 330 333 338 339 341 342 342 342 341 340 338 336 335 334 334 333 331 328 329 332
312 313 314 315 315 316 315 316 317 318 320 321 325 332 334 336 340 343 341 340 341 338 336 333 334 333 332 333 332 326 328 331
309 310 311 312 312 312 312 313 314 316 318 320 322 331 334 336 336 339 340 340 339 337 335 332 332 333 332 333 331 328 324 327
308 308 308 308 309 309 308 308 310 311 315 317 321 322 328 332 334 336 337 336 335 335 332 331 331 332 332 333 332 331 329 323
305 305 306 306 306 305 302 303 305 306 308 310 318 321 332 333 334 333 333 333 333 334 332 332 331 332 331 333 334 334 332 327
304 305 305 305 305 303 300 299 300 303 305 308 313 323 327 332 332 331 330 331 331 332 333 334 332 331 330 329 331 334 332 330
302 302 302 302 301 301 298 297 297 300 302 305 313 324 325 333 332 332 328 328 329 331 333 328 329 330 331 330 329 333 332 329
301 300 300 300 299 300 297 294 295 298 301 306 312 328 329 335 333 332 330 330 332 336 331 327 327 329 330 331 330 334 333 332
299 299 299 299 298 298 294 293 294 296 300 303 312 334 335 333 332 332 331 337 336 332 329 327 327 328 330 329 331 332 329 327
297 297 297 297 297 297 293 293 293 295 299 302 310 330 331 332 332 332 329 334 332 331 328 329 327 328 329 330 330 328 325 326
295 296 296 296 297 296 292 291 292 293 296 301 305 326 328 329 329 328 327 329 330 328 328 325 324 326 327 326 325 327 327 323
295 295 294 295 295 293 290 290 290 291 294 298 302 304 314 323 323 324 326 325 328 328 327 324 323 325 325 326 325 325 324 322
293 294 293 293 293 291 288 288 288 289 292 295 297 297 300 303 319 323 324 326 326 325 325 323 323 327 325 324 324 323 323 323
291 291 292 292 292 291 287 286 287 287 289 292 292 295 296 297 302 312 321 323 323 323 325 322 322 322 322 321 321 321 321 323
288 289 289 290 289 289 289 286 286 288 287 287 290 292 293 293 293 295 300 309 319 317 312 309 309 309 301 307 316 320 320 319
287 287 287 288 287 286 286 287 286 286 286 286 288 288 291 292 291 290 290 291 294 299 300 300 296 293 291 292 302 312 307 306
284 285 286 286 286 286 286 286 287 285 284 285 285 286 287 288 289 289 287 287 288 289 292 291 290 290 290 292 293 300 296 294
283 284 285 285 285 285 286 286 285 285 284 283 284 284 284 285 287 286 286 286 285 285 286 288 288 288 288 289 289 291 290 289

GFSFLT1_sfc_thetae_105.txt.gz
Theta_e
315 316 318 319 321 321 322 322 324 326 326 327 327 329 341 344 343 346 348 348 347 347 342 343 342 338 340 337 336 337 336 336
314 316 318 319 319 319 319 320 321 322 321 322 323 321 331 338 340 344 348 346 348 344 342 343 341 336 339 336 335 334 333 335
312 314 315 316 316 317 317 317 318 318 319 320 322 324 326 332 339 342 345 343 344 340 341 340 340 336 338 335 334 331 332 332
310 312 313 314 313 313 313 313 314 316 318 318 320 323 325 327 337 338 340 344 344 341 341 340 338 337 335 334 334 330 327 329
310 310 310 311 312 313 312 312 311 313 315 314 314 316 319 322 330 335 338 342 340 340 342 338 336 337 334 334 334 332 332 325
308 309 309 310 311 310 310 309 309 310 310 310 308 311 318 324 327 335 338 340 339 339 340 337 334 334 334 332 333 333 334 330
308 309 308 308 309 309 308 307 306 306 304 304 304 306 311 319 325 331 336 339 337 336 335 335 335 336 333 332 334 336 335 333
305 305 305 305 305 306 304 302 301 302 299 300 302 305 308 314 322 328 335 336 332 331 333 331 334 333 326 324 328 333 335 333
304 304 303 303 303 303 300 299 299 298 297 298 301 304 308 315 322 329 332 334 334 331 331 331 332 332 331 332 333 334 333 332
302 302 302 302 301 300 298 298 298 296 295 296 299 303 308 321 329 334 335 337 334 332 331 331 331 332 331 332 329 330 332 334
301 301 301 301 301 299 298 298 296 294 294 295 298 301 306 324 332 333 334 336 335 334 332 330 328 328 331 331 327 330 331 334
299 300 300 300 300 299 297 295 294 293 293 294 296 299 303 310 328 331 333 335 334 332 331 328 328 328 325 325 328 326 328 330
298 299 299 298 297 297 296 293 293 292 291 292 294 296 298 302 307 319 331 332 332 332 328 329 329 327 328 321 319 323 325 326
296 297 296 295 295 295 294 291 290 291 290 290 291 292 295 296 298 303 323 328 327 326 328 328 328 328 327 325 321 320 325 327
293 294 294 294 293 293 292 292 289 289 289 288 288 290 292 294 295 297 298 306 324 325 326 327 326 326 327 328 325 324 325 326
290 290 290 291 291 290 291 290 290 287 286 286 286 287 290 292 293 292 294 293 295 308 318 313 317 314 315 323 324 322 322 322
287 288 288 288 288 288 289 288 289 288 285 285 286 287 287 288 289 290 290 290 289 291 294 298 297 295 292 295 312 315 312 310
285 285 286 286 286 287 287 288 288 287 285 285 285 285 285 285 287 287 287 288 288 286 287 289 290 291 291 294 295 299 295 295
284 285 286 286 287 287 288 288 286 285 285 285 285 285 284 285 284 284 285 285 285 285 284 286 287 288 289 290 290 291 290 289

GFSFLT1_sfc_thetae_108.txt.gz
Theta_e
315 316 318 318 320 321 321 321 323 324 324 327 327 326 326 327 338 342 343 344 342 342 342 341 340 339 338 339 336 337 335 334
315 317 318 317 318 317 317 317 318 318 318 318 319 320 323 324 331 337 341 342 342 341 341 340 339 337 336 337 334 333 331 332
312 314 315 316 315 314 314 313 314 314 315 316 317 317 318 321 324 326 335 338 339 340 340 339 338 336 335 335 333 330 331 332
310 311 312 314 312 312 311 311 311 312 313 313 314 315 316 318 320 321 324 336 338 339 340 339 336 335 333 334 332 329 327 330
309 309 309 311 310 311 310 310 309 310 310 308 308 308 308 312 315 320 324 336 336 338 339 338 335 334 332 332 333 330 328 325
307 307 307 308 308 308 308 307 306 306 306 305 303 302 306 309 313 315 320 324 335 336 337 336 334 333 331 333 332 330 328 325
306 306 306 305 306 306 304 303 302 303 303 301 299 299 301 303 306 310 314 322 329 334 334 337 336 333 331 331 326 330 328 328
303 302 302 303 303 303 301 300 300 301 301 298 297 298 299 300 303 306 310 316 324 327 333 334 334 332 331 331 330 329 328 327
301 301 301 301 301 301 299 298 298 299 298 297 296 297 299 301 304 307 309 315 322 328 330 332 332 332 331 331 329 327 324 323
299 300 301 300 300 299 298 296 295 296 296 295 295 297 299 300 303 307 312 317 322 330 332 331 331 331 331 324 322 323 322 326
298 299 299 299 299 298 298 296 293 294 294 293 294 295 298 300 303 306 316 321 327 330 331 331 329 330 329 326 326 327 329 328
296 298 298 297 297 296 296 294 292 291 292 292 293 293 295 297 299 301 304 309 327 329 330 330 329 328 328 328 327 327 326 325
295 296 296 295 294 293 293 292 291 290 290 291 291 291 293 294 295 298 302 302 311 327 329 329 328 326 326 326 324 324 323 318
293 293 292 292 292 292 292 291 290 289 288 289 289 289 290 291 293 294 297 298 302 313 325 326 325 325 323 323 322 322 320 320
290 290 290 290 290 290 290 290 290 289 287 287 287 287 288 289 291 292 294 295 296 298 311 322 324 325 324 323 320 318 316 318
288 287 287 287 287 288 289 289 289 288 287 286 286 287 287 287 288 288 290 291 292 292 294 297 300 303 304 313 322 319 316 315
286 286 286 286 286 287 288 288 287 287 286 286 286 286 286 286 285 285 286 287 288 289 288 290 292 293 290 295 313 319 317 313
283 284 284 284 285 287 286 287 287 286 285 286 286 286 285 285 285 284 283 283 285 285 286 286 286 287 289 292 296 299 296 294
283 284 284 285 286 286 286 286 285 285 284 285 285 285 285 285 285 284 283 282 281 281 282 284 285 285 287 288 289 290 288 287

GFSFLT1_sfc_thetae_111.txt.gz
Theta_e
310 312 312 312 312 312 312 313 312 312 313 315 315 316 318 319 320 324 336 339 341 339 338 338 336 335 332 334 335 334 335 333
311 310 310 310 309 309 309 309 309 309 309 309 310 311 313 314 316 319 320 333 338 339 338 337 339 337 335 334 334 333 327 331
308 308 307 307 306 306 306 306 306 306 308 308 308 309 311 313 315 317 318 320 324 337 338 337 338 336 334 333 333 328 327 330
305 306 305 305 304 304 304 304 304 304 305 305 304 305 306 307 309 311 313 316 319 324 336 337 337 335 334 332 329 329 324 326
304 303 302 302 302 303 302 302 301 302 302 301 299 298 298 301 303 307 309 311 314 319 325 334 336 334 331 328 322 322 318 323
300 300 301 301 301 299 300 300 300 300 300 299 297 296 297 300 301 302 305 307 311 315 321 328 331 332 331 323 320 323 326 326
300 301 301 299 298 297 297 298 298 299 298 297 296 295 296 296 298 299 302 304 307 311 318 325 330 330 330 328 325 326 326 326
298 298 297 298 296 296 297 295 294 295 296 296 295 294 295 295 297 299 301 303 306 308 315 320 326 328 329 328 328 328 327 325
297 297 296 295 296 295 293 293 291 292 294 294 294 294 295 296 298 300 301 303 307 310 312 318 321 326 328 329 328 325 322 326
296 296 295 295 294 294 293 292 291 290 292 292 293 294 294 294 296 299 301 305 308 312 312 316 315 319 321 327 326 323 321 317
295 294 293 294 293 293 291 291 292 290 290 290 292 292 293 293 295 297 298 301 304 307 316 317 320 316 321 326 325 323 323 322
292 292 292 292 291 291 291 290 290 289 289 289 290 290 291 292 293 294 295 298 301 305 308 322 324 325 325 324 324 322 321 320
290 290 290 289 289 289 290 290 289 289 289 289 289 289 290 290 291 292 294 295 297 300 306 316 324 324 324 324 323 323 322 322
287 287 287 287 288 288 289 289 288 288 288 288 288 288 288 288 288 289 291 291 293 295 299 301 310 323 325 326 325 325 325 324
286 285 286 286 287 287 288 287 288 287 287 287 286 287 288 287 287 287 287 289 289 291 293 295 297 299 302 307 323 322 319 318
285 284 284 285 285 286 287 286 286 287 286 286 286 287 288 287 286 285 285 285 286 288 289 290 291 292 291 293 302 318 315 314
283 284 283 284 284 285 285 285 285 286 285 285 286 286 287 286 286 284 283 283 283 284 285 286 287 289 289 289 294 317 314 310
282 283 283 283 283 285 284 285 286 285 285 285 286 286 286 286 286 285 283 282 282 282 282 283 284 286 288 288 288 294 298 297
281 282 283 283 285 285 285 285 285 284 284 284 285 284 284 285 285 285 285 283 282 281 281 282 282 284 287 287 285 285 285 286

GFSFLT1_sfc_thetae_114.txt.gz
Theta_e
309 309 308 308 308 308 307 307 307 308 308 308 309 310 311 313 313 316 318 319 326 334 337 337 335 333 334 335 336 335 333 333
307 307 306 306 305 305 305 304 304 304 304 304 305 304 306 308 310 313 315 317 319 319 331 336 334 334 334 332 332 329 329 331
305 304 303 303 302 302 301 301 301 301 302 302 302 302 304 305 308 308 310 311 313 314 317 325 335 334 332 330 332 329 331 331
302 301 300 300 299 299 299 299 299 300 300 300 299 299 300 301 301 302 305 306 308 310 312 316 318 331 334 333 329 329 326 326
300 299 297 297 297 298 298 299 298 299 298 297 295 294 293 297 298 300 301 304 305 308 311 313 316 321 328 333 329 327 321 316
297 297 296 296 296 295 296 295 295 296 296 295 294 293 294 295 298 299 300 302 304 306 307 309 312 315 321 331 326 319 319 315
297 297 297 295 295 294 294 293 291 293 294 293 295 293 293 294 295 297 299 302 303 306 307 308 311 315 320 327 327 324 319 318
294 293 293 293 293 292 293 292 290 290 291 291 293 293 294 294 294 296 296 298 300 303 305 308 309 312 317 325 323 321 321 320
293 292 292 292 292 291 290 290 290 290 290 290 292 292 293 293 293 294 295 298 300 302 304 307 309 311 314 320 326 324 321 323
291 292 291 291 291 290 289 290 290 289 289 289 290 291 291 292 292 294 295 296 298 299 300 303 306 313 313 317 323 322 323 324
290 290 289 289 290 290 290 290 289 289 289 289 290 290 291 291 292 292 293 294 295 296 298 301 305 312 314 315 318 323 322 322
288 288 289 289 289 289 288 288 288 287 288 288 288 288 289 290 290 290 290 292 293 295 296 299 304 307 318 315 316 321 322 322
286 286 287 287 287 288 287 286 286 287 288 288 287 288 288 288 288 288 289 289 291 292 294 296 299 300 305 321 317 320 320 320
285 285 285 286 286 287 286 285 285 287 288 287 287 287 287 286 286 287 287 287 288 289 291 292 293 294 296 302 318 320 320 320
284 284 284 285 285 285 285 285 286 286 286 286 286 286 287 286 286 286 285 286 285 286 287 289 290 291 292 293 299 310 318 322
283 282 282 283 284 283 284 284 286 285 285 285 285 286 287 287 286 286 285 285 285 285 285 286 287 289 289 289 297 304 308 317
282 282 282 282 283 283 283 283 284 284 284 284 284 285 285 286 286 285 284 284 284 284 283 284 284 286 288 288 291 291 290 297
281 282 282 283 283 284 283 284 284 283 283 283 284 283 283 283 284 284 283 282 281 282 282 283 283 284 286 288 287 286 286 285
281 282 283 284 285 285 285 284 284 282 282 281 282 282 281 282 282 282 281 282 281 280 281 282 283 284 285 285 286 286 284 283

GFSFLT1_sfc_thetae_117.txt.gz
Theta_e
306 305 305 304 303 304 304 303 303 303 304 305 305 304 304 307 308 310 312 315 316 317 320 327 334 333 334 335 334 335 334 334
304 303 302 301 301 300 300 300 300 301 300 299 300 298 301 302 305 305 306 309 310 310 312 314 320 330 331 330 331 330 332 333
301 300 298 298 297 298 298 298 298 298 298 298 298 297 299 300 301 301 304 303 305 307 307 309 313 315 321 331 331 328 327 329
298 297 296 296 295 296 296 296 296 296 297 296 296 297 296 297 296 298 300 302 303 304 305 307 309 311 312 319 330 330 327 324
296 295 295 295 294 294 293 293 294 295 295 294 293 292 292 293 294 297 299 301 303 304 305 305 306 309 311 315 322 329 329 320
295 294 294 294 294 293 292 291 291 292 292 293 293 293 294 296 296 296 297 301 302 304 306 306 306 307 309 311 314 322 328 327
294 295 294 292 292 292 292 291 290 291 291 292 292 292 292 293 293 294 295 297 299 302 304 305 306 308 309 311 313 319 326 324
291 291 291 291 290 290 291 290 289 289 289 290 292 292 292 292 292 292 293 295 297 299 300 301 303 306 309 310 311 314 322 323
289 289 289 290 289 289 289 289 288 289 289 290 290 291 291 292 292 292 293 294 295 297 298 299 300 303 305 308 311 312 317 323
286 287 288 288 289 289 288 288 288 288 289 289 290 290 290 290 291 292 291 292 293 295 295 297 298 300 303 307 312 312 315 322
287 287 287 288 289 289 288 287 287 288 288 289 289 289 290 290 290 289 289 290 291 292 293 294 296 298 302 304 307 314 314 321
285 286 287 287 288 288 286 286 286 286 288 288 288 288 289 288 288 287 287 288 289 289 290 292 293 294 296 297 299 314 313 316
285 285 286 286 286 285 284 285 285 286 288 288 288 288 288 287 286 286 287 286 287 288 289 290 290 291 293 293 294 299 314 315
284 284 284 284 284 284 284 284 284 286 287 287 287 287 287 286 286 286 286 286 286 286 287 287 288 289 290 291 292 295 301 316
283 282 283 283 284 283 284 284 285 285 286 285 285 285 285 286 286 285 284 284 284 285 286 286 287 288 288 289 290 296 302 310
282 281 282 283 283 283 284 284 284 285 284 284 284 284 284 285 284 284 283 283 284 284 284 285 286 286 286 286 288 290 292 294
281 281 282 282 283 283 284 284 283 284 283 283 283 283 282 282 283 282 282 281 281 282 282 283 284 286 286 286 287 287 287 288
280 281 282 283 283 284 283 284 283 282 281 281 280 280 279 279 280 280 279 280 280 279 279 280 282 284 286 286 285 285 284 285
280 281 281 282 283 285 285 285 283 282 281 281 280 279 278 277 277 277 277 277 277 277 278 279 280 283 286 286 284 283 283 283

GFSFLT1_sfc_thetae_120.txt.gz
Theta_e
301 300 300 299 299 299 300 300 300 301 302 303 302 302 303 303 305 305 307 308 309 309 312 314 316 323 332 333 331 333 332 333
298 297 297 297 297 297 297 297 297 298 298 298 299 297 300 300 300 302 303 303 305 305 307 308 312 313 315 323 331 326 326 331
295 295 294 293 293 293 293 294 295 295 296 296 296 296 298 299 298 299 300 301 303 303 303 304 307 309 310 312 321 328 328 330
294 294 293 293 292 292 292 292 292 294 295 296 296 295 295 295 295 296 298 301 302 303 303 304 305 306 307 310 313 317 326 327
293 292 292 291 293 294 293 293 293 293 293 294 293 292 292 295 296 296 297 300 300 302 305 306 307 307 307 308 311 312 318 323
291 292 292 291 291 292 293 293 292 291 291 292 292 291 293 294 295 294 295 296 299 301 303 304 304 306 307 308 309 310 312 316
291 291 292 291 291 291 292 291 291 291 290 291 290 290 291 292 292 293 294 295 297 299 299 300 301 303 304 307 310 311 311 313
289 288 288 289 290 290 290 289 288 290 290 290 290 290 290 291 291 291 292 292 293 295 296 297 298 300 301 304 305 307 310 311
287 287 287 288 289 288 288 288 288 289 289 289 290 290 290 290 290 290 290 290 291 293 294 295 297 298 300 302 304 306 310 312
287 287 287 287 288 288 286 287 287 288 289 289 289 289 289 288 289 289 289 289 290 291 292 292 294 296 297 299 301 303 306 311
287 286 287 287 288 287 286 287 286 287 288 289 289 289 289 289 288 287 287 288 289 289 290 291 292 293 294 295 296 298 301 305
285 285 286 287 287 286 285 286 286 287 287 288 288 288 288 288 288 287 287 288 288 288 289 289 290 290 291 291 292 294 295 299
283 284 284 285 284 285 285 286 286 286 287 287 286 287 287 286 285 285 285 285 287 287 288 288 288 289 289 289 290 291 293 296
281 283 283 284 284 284 284 285 285 286 286 285 285 285 285 285 285 284 284 284 285 286 286 287 287 288 287 288 289 291 292 295
281 282 283 283 284 284 284 284 285 285 285 284 283 283 283 284 284 283 283 283 283 283 284 286 287 287 287 287 288 288 289 290
280 281 282 282 283 283 283 283 283 283 282 281 281 282 282 282 282 281 282 281 281 282 282 284 285 286 286 285 286 286 285 286
281 282 282 282 283 283 283 282 282 282 281 280 280 280 280 279 279 279 279 279 279 280 281 281 282 285 286 286 285 284 284 283
281 281 281 282 283 283 283 282 282 281 281 280 280 279 278 277 277 277 276 276 277 279 279 280 280 283 285 285 285 283 282 282
281 281 281 282 282 284 283 283 282 281 280 280 279 278 277 276 276 275 275 275 275 277 278 278 278 281 284 284 283 282 281 281

GFSFLT1_sfc_thetae_123.txt.gz
Theta_e
298 298 299 299 299 299 298 299 299 301 306 309 310 310 310 310 310 311 311 313 313 315 318 318 319 322 325 331 331 336 337 338
298 298 298 298 298 297 297 296 297 298 300 301 304 305 307 306 306 307 308 309 311 312 312 314 316 317 319 321 323 328 332 334
295 295 295 296 297 297 296 295 295 296 298 300 301 301 305 304 304 305 305 307 309 309 310 311 311 312 315 317 319 321 330 331
293 293 292 292 293 294 294 294 294 294 296 299 300 301 301 301 301 302 303 304 305 307 307 307 308 309 308 309 314 318 320 328
292 292 292 293 293 294 295 293 293 294 295 295 296 293 293 296 298 300 301 302 303 303 304 305 306 307 308 309 311 311 315 318
291 293 293 293 293 294 292 295 293 293 293 295 293 292 293 295 296 297 298 299 300 300 301 301 302 303 305 306 308 310 312 312
292 292 292 292 292 291 293 292 292 292 292 293 291 291 291 291 292 292 293 295 296 297 297 298 299 300 301 302 304 306 309 312
290 289 290 290 290 291 291 290 289 291 292 291 291 291 291 290 289 290 291 291 292 293 294 295 296 297 299 301 302 303 306 308
288 289 289 289 289 289 290 290 290 290 291 290 291 291 290 290 290 289 290 290 291 292 292 293 294 295 297 298 300 302 305 307
288 288 288 288 289 288 288 288 288 289 290 290 290 290 290 289 289 289 289 290 290 291 291 291 292 293 294 295 296 298 299 300
287 288 288 288 288 288 288 288 288 288 289 289 289 289 289 289 288 287 288 288 289 289 290 290 291 291 292 292 293 295 296 298
286 287 288 288 288 287 287 287 287 287 288 288 287 287 288 288 286 286 287 287 287 287 288 289 289 290 290 290 291 294 294 296
286 286 287 286 286 286 286 286 286 287 287 287 287 287 287 286 286 286 286 285 286 286 287 288 288 289 289 289 290 291 291 292
285 285 285 285 285 285 285 286 286 286 286 285 285 285 285 285 285 285 285 285 285 285 285 286 287 287 288 288 288 288 288 289
284 284 284 284 285 285 284 284 285 285 285 284 283 283 283 284 285 284 284 284 284 283 284 285 286 286 287 287 287 287 287 287
283 283 283 283 283 284 284 284 284 284 283 282 282 283 282 283 283 283 283 283 283 283 283 283 285 285 285 286 286 286 285 285
282 282 282 283 283 283 284 284 284 284 282 281 281 281 281 281 281 281 282 281 282 282 281 281 283 284 285 284 285 284 285 284
282 282 283 283 284 284 283 283 284 283 282 281 281 280 279 279 280 280 280 280 280 280 280 280 281 283 283 283 283 284 283 283
282 282 282 283 284 285 285 284 283 282 281 280 280 279 279 279 279 278 278 279 278 278 279 279 280 282 282 282 281 283 283 282

GFSFLT1_sfc_thetae_126.txt.gz
Theta_e
303 304 305 306 306 305 302 302 304 305 305 309 313 314 314 315 316 315 316 318 319 321 323 324 326 327 331 332 331 333 335 336
302 302 303 304 305 304 302 300 299 299 303 303 305 306 313 313 313 313 313 314 316 318 319 320 322 322 324 327 328 331 335 338
300 301 302 302 302 302 301 299 299 298 299 299 304 306 310 311 310 311 311 311 312 312 311 311 311 313 317 320 323 323 326 334
299 299 301 302 302 303 302 301 299 299 299 300 301 305 306 305 306 307 307 308 307 305 306 307 308 309 310 310 312 315 319 325
297 299 298 300 300 300 302 300 301 300 301 300 301 302 302 302 304 304 304 305 303 302 302 304 305 305 307 307 310 311 312 313
296 296 295 296 296 296 297 300 299 299 299 297 298 298 300 302 302 301 301 301 302 301 300 301 301 302 303 303 304 305 308 311
294 295 295 295 298 298 297 297 297 298 295 296 297 296 295 296 296 296 297 297 298 298 298 299 300 300 300 301 302 303 305 307
292 293 295 296 296 297 297 297 296 296 295 294 294 293 294 294 293 292 293 292 293 295 295 296 297 297 298 299 300 302 304 304
293 293 294 293 294 293 294 295 294 295 294 294 294 293 293 292 292 291 291 291 292 293 294 294 295 296 297 297 298 300 303 303
292 293 292 292 293 291 291 292 292 293 293 292 292 291 291 290 291 291 290 291 291 292 292 292 293 294 294 295 295 297 298 300
292 294 292 292 291 291 291 291 290 291 291 291 291 290 290 291 291 290 290 290 290 290 290 291 291 292 292 293 293 295 295 296
293 294 293 292 291 291 290 290 290 290 290 290 290 290 290 290 289 289 289 290 289 289 289 289 289 290 291 291 291 291 291 292
292 292 291 290 289 289 289 289 289 289 290 289 289 289 289 289 289 288 289 288 289 288 289 289 289 289 289 289 288 289 288 288
291 291 290 288 288 288 288 288 289 289 289 289 289 289 289 288 288 288 288 289 288 287 288 287 288 288 288 289 288 288 288 288
291 289 288 287 287 287 288 289 290 290 289 288 288 288 288 287 288 288 288 288 287 287 287 287 288 287 286 287 288 288 288 287
289 288 286 286 286 287 288 288 289 289 288 286 286 287 287 287 286 287 287 287 287 287 287 288 288 286 285 285 288 288 287 286
288 287 286 285 285 287 287 287 287 287 286 285 285 285 285 285 285 286 286 286 285 285 285 286 286 284 282 283 285 286 285 284
286 285 285 285 285 287 287 287 287 286 285 284 284 284 283 283 283 283 284 284 284 282 283 284 283 284 282 282 283 284 284 283
286 285 285 286 286 286 287 287 286 285 284 282 283 282 282 282 282 281 282 282 281 281 280 281 282 282 280 281 282 284 284 283

GFSFLT1_sfc_thetae_129.txt.gz
Theta_e
307 308 310 311 311 310 308 308 307 309 312 314 314 312 316 316 314 315 317 318 320 321 323 325 325 325 327 330 333 335 333 333
307 307 308 308 308 307 307 306 307 306 305 307 310 309 310 311 313 314 315 316 316 316 315 317 317 317 319 322 324 325 326 333
305 306 307 307 307 307 307 306 306 307 307 307 307 309 311 309 309 312 312 313 311 309 308 309 310 310 312 314 314 315 319 325
304 304 306 306 305 305 306 306 306 306 307 307 309 309 309 308 308 306 308 309 308 306 306 306 306 308 307 309 310 310 310 316
303 302 302 302 303 304 303 304 304 304 305 304 304 304 303 306 306 307 306 307 307 305 304 304 303 304 304 305 307 306 307 306
300 299 300 301 303 303 303 303 303 302 301 301 300 300 301 302 303 304 304 305 304 303 302 302 301 302 302 302 303 303 305 304
299 299 300 301 301 301 303 302 301 301 301 300 298 297 296 296 295 296 298 300 301 300 300 300 299 299 300 300 301 301 303 304
298 299 298 298 299 299 299 300 299 299 298 298 297 296 297 296 294 293 292 294 294 295 297 296 296 297 297 298 298 299 301 302
298 298 298 297 298 297 297 298 297 297 296 295 295 295 294 294 293 293 292 292 292 293 293 294 294 295 296 296 297 298 299 299
297 297 297 297 296 294 294 295 295 294 294 294 293 293 293 292 293 293 292 292 292 292 293 292 293 294 294 294 295 295 295 296
297 298 296 296 295 294 293 293 293 293 293 293 293 292 292 292 292 290 291 291 291 291 291 291 292 293 292 293 292 292 292 292
297 298 296 296 295 294 292 292 292 292 292 292 292 292 292 292 291 290 291 290 290 290 290 291 291 291 292 291 290 290 289 289
299 297 296 294 293 292 291 291 291 292 292 292 292 292 292 291 290 290 291 290 289 289 290 290 290 289 290 290 289 289 288 287
298 296 294 293 292 291 291 291 291 293 293 293 293 292 292 291 291 291 290 290 290 289 290 289 288 288 288 290 290 290 289 288
296 295 293 292 291 291 291 291 292 292 292 292 290 290 290 289 290 290 290 289 289 289 290 289 289 287 285 287 289 288 288 288
295 294 292 290 290 290 291 291 291 292 291 290 289 289 289 289 289 289 289 288 288 288 288 288 287 285 284 284 288 287 287 286
294 293 291 290 289 290 290 291 290 290 288 287 288 288 287 287 287 287 287 286 286 286 286 285 284 283 282 284 286 285 284 284
292 291 290 289 289 290 289 290 290 288 287 287 286 286 285 285 285 285 284 284 284 283 283 284 282 281 280 282 284 285 284 283
290 290 289 288 289 289 290 290 289 287 285 284 285 284 283 284 283 282 283 283 282 281 281 281 282 280 280 280 283 285 284 283

GFSFLT1_sfc_thetae_132.txt.gz
Theta_e
307 308 308 308 309 309 308 308 308 309 308 310 313 313 313 312 313 313 314 314 313 312 312 313 313 314 315 316 317 320 322 324
307 308 308 308 308 307 307 307 307 307 307 306 306 307 310 309 308 309 310 310 309 309 308 308 309 309 310 311 311 311 312 316
305 306 307 306 305 306 306 305 306 305 305 307 308 308 310 309 309 308 308 308 308 305 305 305 304 306 306 307 308 306 308 311
304 304 303 303 303 303 303 303 304 303 303 305 305 307 308 306 306 306 307 306 306 304 303 303 302 303 303 303 304 303 302 306
303 302 301 302 302 304 303 304 302 302 302 300 300 300 298 301 302 301 304 305 303 302 301 301 300 301 300 300 302 301 303 300
300 300 301 301 302 302 303 303 301 301 301 299 298 297 297 298 298 298 298 299 300 299 298 299 298 298 298 299 299 300 301 301
300 300 302 300 301 301 301 300 299 299 298 298 296 295 295 295 294 294 294 295 295 295 295 296 296 296 296 296 298 298 299 300
299 300 299 299 299 298 298 298 297 297 296 295 294 294 294 293 292 292 291 292 292 293 293 293 294 295 295 295 295 297 297 297
300 299 299 298 297 295 296 296 295 294 294 294 293 293 292 293 292 292 291 291 291 292 293 293 293 294 294 295 295 295 294 295
298 298 298 297 295 294 294 294 294 293 293 293 292 293 292 291 292 291 291 291 291 291 292 292 293 293 293 293 292 291 292 291
298 299 297 296 295 294 294 293 292 293 293 292 292 292 292 292 291 290 291 290 290 290 290 291 291 291 292 291 291 291 290 290
298 298 297 296 295 293 293 292 292 292 292 292 292 292 292 291 290 290 290 290 290 290 291 290 289 289 290 291 290 290 289 289
299 299 296 295 294 293 291 292 292 292 292 292 292 292 292 291 291 290 291 290 290 290 290 289 287 286 287 288 289 290 289 288
298 298 295 294 293 292 291 292 292 293 293 293 292 291 290 289 289 290 289 289 289 289 288 287 285 285 285 286 289 288 288 287
298 297 295 293 292 292 291 291 292 292 292 291 290 289 289 289 289 288 288 288 287 287 286 284 283 283 284 285 287 286 286 285
298 296 293 291 291 291 291 291 292 292 290 289 288 288 288 288 287 287 287 286 285 286 285 283 282 281 282 283 285 284 283 282
297 296 292 290 290 290 291 291 290 290 288 287 287 287 286 285 285 285 284 283 283 282 283 281 279 280 282 284 285 283 282 280
296 294 292 291 291 291 290 290 290 288 287 286 285 285 284 283 284 283 282 281 281 280 280 281 278 279 281 282 284 282 281 279
295 292 290 290 290 290 291 290 288 286 285 284 284 284 283 282 282 281 281 281 280 279 278 278 278 279 280 280 282 281 281 279

GFSFLT1_sfc_thetae_135.txt.gz
Theta_e
303 303 303 302 301 302 302 303 302 302 303 303 304 305 305 305 304 306 308 307 307 306 307 307 307 308 308 308 307 309 309 311
302 303 302 301 301 300 300 300 300 300 300 301 301 300 303 302 303 305 305 305 304 303 304 303 304 304 305 305 305 304 306 306
302 301 299 298 298 299 299 298 298 298 299 299 299 300 302 303 303 303 304 303 302 301 300 301 302 302 303 302 302 301 303 304
300 299 297 297 297 297 298 297 297 298 297 297 298 299 299 298 297 298 299 300 299 297 298 298 299 300 299 299 300 300 298 302
298 297 296 296 296 297 297 297 296 297 296 295 293 293 292 294 294 295 295 297 295 295 295 296 297 298 297 297 299 299 299 298
296 296 296 296 296 295 296 296 295 295 294 293 292 291 292 293 293 292 292 294 294 294 293 294 295 295 296 296 296 297 298 298
297 298 297 295 294 294 294 293 293 293 292 292 290 290 290 290 290 291 292 292 293 293 294 294 294 294 294 295 295 296 297 297
296 295 294 293 292 292 293 292 291 291 291 291 291 292 292 290 291 291 290 290 291 291 292 293 293 294 294 294 295 294 294 293
295 295 294 292 292 290 290 291 290 291 293 291 292 292 291 291 290 291 290 290 290 291 291 292 292 293 293 293 292 292 292 292
295 295 293 291 290 289 289 289 290 292 292 292 291 292 291 290 290 291 290 290 290 290 291 290 290 291 292 292 291 290 290 290
295 294 292 291 290 289 289 289 291 292 292 292 291 291 291 291 290 290 290 290 290 291 289 288 287 288 289 291 290 290 289 289
294 294 292 291 290 289 288 290 291 291 291 292 291 291 291 290 289 289 289 288 288 289 286 285 285 286 287 289 289 289 288 288
295 293 292 291 289 288 288 290 291 290 291 292 291 289 288 287 287 286 286 286 287 286 285 282 283 284 285 287 287 287 285 285
294 292 291 290 289 289 288 288 289 291 292 289 287 286 286 285 285 285 285 285 285 284 283 282 281 283 284 285 285 284 283 283
296 292 290 289 289 289 288 289 290 290 291 288 286 285 285 285 285 284 284 284 283 282 281 280 281 282 283 284 284 282 280 280
296 291 289 288 289 288 289 289 291 291 289 286 284 285 285 284 283 283 282 281 281 282 279 279 279 281 284 283 283 281 278 277
296 291 289 289 289 288 289 290 288 288 285 284 285 284 283 282 282 281 280 280 279 280 278 278 278 280 283 284 282 280 278 276
295 290 289 289 288 289 289 288 287 286 284 284 283 282 281 281 281 280 279 278 278 277 277 277 277 278 282 282 282 279 278 277
293 290 289 288 288 289 288 287 285 284 282 283 283 282 280 280 279 277 276 277 273 273 275 275 275 278 280 280 280 277 276 275